Regional Weather Roundup
Issued by NWS

Home | Current Version | Previous Version | Text Only | Print | Product List | Glossary Off
Versions: 1 2 3 4 5 6 7 8 9 10 11 12 13 14 15 16 17 18 19 20 21 22 23 24 25 26 27 28 29 30 31 32 33 34 35 36 37 38 39 40 41 42 43 44 45 46 47 48 49 50

000
ASUS44 KMEG 032110
RWRTN
TENNESSEE HOURLY STATE WEATHER ROUNDUP
NATIONAL WEATHER SERVICE MEMPHIS TN
400 PM CDT TUE MAY 03 2016

TNZ002-004-019-021-049-052-054-088>092-032200-
WEST TENNESSEE

CITY           SKY/WX    TMP DP  RH WIND       PRES   REMARKS
MEMPHIS INTL   CLOUDY    64  49  57 NW12      29.99F
NWS MEMPHIS      N/A     64 N/A N/A MISG        N/A
JACKSON        CLOUDY    63  50  62 NW8       29.96F
DYERSBURG      CLOUDY    64  48  55 N7        29.97F
UNION CITY     PTSUNNY   63  48  59 NW9       29.96F
LEXINGTON      CLOUDY    63  48  59 W9        29.94F
$$

TNZ008-025-027-028-033-062-065-066-032200-
NORTH MIDDLE TENNESSEE

CITY           SKY/WX    TMP DP  RH WIND       PRES   REMARKS
NASHVILLE      PTSUNNY   65  47  52 N10       29.93F
CLARKSVILLE    CLOUDY    63  45  51 NW13      29.94F
SMYRNA         PTSUNNY   67  50  54 N10       29.93F
COOKEVILLE     PTSUNNY   66  52  59 VRB5      29.90F
CROSSVILLE     PTSUNNY   64  48  56 W12G17    29.91F
$$

TNZ061-075-076-078-094-096-097-032200-
SOUTH MIDDLE TENNESSEE

CITY           SKY/WX    TMP DP  RH WIND       PRES   REMARKS
FAYETTEVILLE   PTSUNNY   68  50  52 NW9       29.90F
TULLAHOMA      PTSUNNY   64  48  55 NW8       29.92S
WINCHESTER     CLOUDY    66  50  55 NW9       29.90S
MCMINNVILLE    MOSUNNY   64  48  55 NW7       29.91F
COLUMBIA       CLOUDY    66  52  59 VRB5      29.91F
SHELBYVILLE    CLOUDY    68  50  52 NW10      29.92S
$$

TNZ017-018-042-046-047-032200-
NORTHEAST TENNESSEE

CITY           SKY/WX    TMP DP  RH WIND       PRES   REMARKS
TRI CITIES     MOSUNNY   68  49  50 W13       29.83F
$$

TNZ012-013-036-069-073-074-032200-
CENTRAL EAST TENNESSEE

CITY           SKY/WX    TMP DP  RH WIND       PRES   REMARKS
KNOXVILLE      MOSUNNY   69  50  50 W10       29.84F
OAK RIDGE      MOSUNNY   72  46  39 W9G17     29.87S
GATLINBURG     MOCLDY    70  54  56 NW8       29.83F
MORRISTOWN     MOCLDY    68  50  52 NW10G23   29.84F
$$

TNZ083-085-099-032200-
SOUTHEAST TENNESSEE

CITY           SKY/WX    TMP DP  RH WIND       PRES   REMARKS
CHATTANOOGA    MOSUNNY   74  49  41 NW10      29.86F
$$

SKY/WX REPORTED AS FAIR MEANS FEW OR NO CLOUDS BELOW
12 THOUSAND FEET.





USA.gov is the U.S. government's official web portal to all federal, state and local government web resources and services.